FW7632 Weather Reports


time (UTC)temp
C
wind
direction
speed
KPH
gust
KPH
rain 1hr
cm
rain 24hr
cm
rain mn
cm
humidity
%
barometer
mb
20260505200100 19 226 3.2 30.6 0.20 0.30 0.30 1 1004.3
20260505194542 23 280 16.1 40.2 0.03 0.13 0.13 50 1004.6
20260505193037 26 238 8.0 22.5 0.00 0.10 0.10 35 1002.1
20260505191533 26 232 11.3 24.1 0.00 0.10 0.10 32 1002.0
20260505190037 26 217 11.3 33.8 0.00 0.10 0.10 34 1002.1
20260505184527 26 220 12.9 33.8 0.03 0.10 0.10 37 1002.5
20260505183038 24 234 9.7 17.7 0.03 0.10 0.10 44 1002.6
20260505181515 23 263 3.2 12.9 0.03 0.10 0.10 50 1003.2
20260505180010 23 252 11.3 27.4 0.03 0.10 0.10 49 1003.6
20260505174505 24 247 6.4 19.3 0.00 0.08 0.08 47 1003.6
20260505173002 25 216 8.0 24.1 0.00 0.08 0.08 42 1003.8
20260505171556 26 212 11.3 20.9 0.00 0.08 0.08 39 1003.8
20260505170054 26 235 8.0 27.4 0.00 0.08 0.08 38 1003.4
20260505164547 26 219 4.8 22.5 0.00 0.08 0.08 39 1003.3
20260505163044 26 221 9.7 24.1 0.00 0.08 0.08 39 1003.6
20260505161540 26 236 11.3 27.4 0.00 0.08 0.08 37 1003.8
20260505153027 26 217 12.9 33.8 0.00 0.08 0.08 38 1004.0
20260505151521 25 197 14.5 29.0 0.00 0.08 0.08 39 1004.1
20260505140124 22 203 9.7 22.5 0.00 0.08 0.08 46 1004.5
20260505124543 17 220 8.0 24.1 0.00 0.08 0.08 40 1005.6
20260505123032 17 197 9.7 29.0 0.08 0.08 0.08 35 1005.2
20260505121529 16 238 6.4 16.1 0.08 0.08 0.08 24 1005.3
20260505120024 16 224 4.8 17.7 0.08 0.08 0.08 1 1005.2
20260505114519 16 206 6.4 16.1 0.08 0.08 0.08 1 1005.0
20260505113016 17 220 6.4 14.5 0.00 0.00 0.00 41 1005.9
20260505111513 17 269 4.8 12.9 0.00 0.00 0.00 51 1005.5
20260505101513 16 225 6.4 16.1 0.00 0.00 0.00 51 1004.8
20260505100009 16 242 6.4 22.5 0.00 0.00 0.00 51 1004.7
20260505094517 16 197 6.4 19.3 0.00 0.00 0.00 51 1004.4
20260505093004 16 217 6.4 14.5 0.00 0.00 0.00 51 1004.4
20260505091506 16 209 3.2 17.7 0.00 0.00 0.00 51 1004.3
20260505090003 16 178 1.6 11.3 0.00 0.00 0.00 51 1004.3
20260505084500 16 223 4.8 16.1 0.00 0.00 0.00 52 1004.2
20260505083103 16 244 1.6 12.9 0.00 0.00 0.00 52 1004.3
20260505081558 16 247 3.2 9.7 0.00 0.00 0.00 52 1004.3
20260505080106 16 236 3.2 11.3 0.00 0.00 0.00 52 1004.4
20260505074554 17 190 3.2 11.3 0.00 0.00 0.00 51 1004.6
20260505073055 17 236 3.2 11.3 0.00 0.00 0.00 51 1004.3
20260505071552 17 223 1.6 16.1 0.00 0.00 0.00 51 1004.5
20260505070055 17 229 4.8 16.1 0.00 0.00 0.00 50 1004.5
20260505064549 17 229 8.0 24.1 0.00 0.00 0.00 50 1004.5
20260505063108 17 223 6.4 19.3 0.00 0.00 0.00 49 1004.5
20260505061546 17 258 9.7 25.7 0.00 0.00 0.00 49 1004.4
20260505060045 17 214 8.0 32.2 0.00 0.00 0.00 49 1004.6
20260505054544 17 234 9.7 17.7 0.00 0.00 0.00 49 1004.6
20260505053049 17 215 8.0 17.7 0.00 0.00 0.00 49 1004.7
20260505051541 17 213 9.7 16.1 0.00 0.00 0.00 49 1004.7
20260505041546 17 183 4.8 16.1 0.00 0.00 0.00 48 1004.6
20260505040038 17 235 6.4 16.1 0.00 0.00 0.00 47 1004.6
20260505034531 17 237 4.8 20.9 0.00 0.00 0.00 47 1004.6
20260505033028 17 229 8.0 22.5 0.00 0.00 0.00 46 1004.6
20260505031538 18 227 8.0 19.3 0.00 0.00 0.00 46 1004.7
20260505030028 18 232 6.4 19.3 0.00 0.00 0.00 45 1004.7
20260505024527 18 216 8.0 19.3 0.00 0.00 0.00 45 1004.8
20260505023027 18 233 6.4 17.7 0.00 0.00 0.00 44 1004.8
20260505021559 18 223 8.0 20.9 0.00 0.00 0.00 43 1004.9
20260505020026 18 229 6.4 16.1 0.00 0.00 0.00 43 1004.9
20260505014532 18 205 4.8 16.1 0.00 0.00 0.00 42 1004.8
20260505013024 18 211 4.8 14.5 0.00 0.00 0.00 41 1004.7
20260505011524 19 219 4.8 22.5 0.00 0.00 0.00 41 1004.7
20260505010026 19 198 8.0 19.3 0.00 0.00 0.00 41 1004.4
20260505004527 19 218 4.8 14.5 0.00 0.00 0.00 40 1004.4
20260505003021 20 229 4.8 14.5 0.00 0.00 0.00 39 1004.3
20260505001521 20 238 6.4 14.5 0.00 0.00 0.00 38 1004.2
20260505000021 20 211 6.4 16.1 0.00 0.00 0.00 37 1004.0
20260504234522 21 232 4.8 11.3 0.00 0.00 0.00 36 1004.0
20260504233023 21 240 6.4 16.1 0.00 0.00 0.00 35 1003.8
20260504231519 22 225 6.4 19.3 0.00 0.00 0.00 33 1003.9
20260504230019 22 213 9.7 19.3 0.00 0.00 0.00 32 1003.7
20260504224520 23 217 8.0 12.9 0.00 0.00 0.00 32 1003.7
20260504223027 23 234 6.4 17.7 0.00 0.00 0.00 31 1003.8
20260504221517 23 209 9.7 24.1 0.00 0.00 0.00 30 1003.7
20260504220018 25 223 4.8 16.1 0.00 0.00 0.00 29 1003.6
20260504214516 25 203 4.8 17.7 0.00 0.00 0.00 29 1003.6
20260504213022 25 209 6.4 16.1 0.00 0.00 0.00 29 1003.8
20260504211512 24 202 8.0 22.5 0.00 0.00 0.00 29 1003.8
20260504210012 25 206 6.4 14.5 0.00 0.00 0.00 30 1004.1
20260504204528 24 223 4.8 24.1 0.00 0.00 0.00 29 1004.2
20260504203010 24 221 4.8 24.1 0.00 0.00 0.00 29 1004.5
20260504201506 25 255 4.8 17.7 0.00 0.00 0.00 28 1004.6